Hourly Data Report for October 02, 2017

All times are specified in Local Standard Time (LST). Add 1 hour to adjust for Daylight Saving Time where and when it is observed.

REVELSTOKE A
BRITISH COLUMBIA

50°58'00.000" N
118°11'00.000" W
444.70 m
1176745
71685
YRV

Download Data

Hourly Data (October 2017)
Hourly Data Report for October 2, 2017
Temp Definition
°C
Dew Point Temp Definition
°C
Rel Hum Definition
%
Wind Dir Definition
10's deg

Wind Spd Definition
km/h
Visibility Definition
km
Stn Press Definition
kPa
Hmdx Definition


Wind Chill Definition


Weather Definition


TIME
00:00 Legend Double Dagger 7.0 4.3 83 34 13 16.1 96.64     LegendNANA
01:00 Legend Double Dagger 6.9 3.9 81 34 9 16.1 96.68     LegendNANA
02:00 Legend Double Dagger 6.4 3.4 81 33 9 16.1 96.69     LegendNANA
03:00 Legend Double Dagger 6.4 3.4 81 33 9 16.1 96.74     LegendNANA
04:00 Legend Double Dagger 5.5 3.0 84 32 9 16.1 96.78     LegendNANA
05:00 Legend Double Dagger 6.3 2.9 79 36 17 16.1 96.81     LegendNANA
06:00 Legend Double Dagger 6.2 2.7 78 35 13 16.1 96.83     LegendNANA
07:00 Legend Double Dagger 6.3 2.2 75 35 5 16.1 96.88     LegendNANA
08:00 Legend Double Dagger 7.4 2.2 69 35 13 16.1 96.87     LegendNANA
09:00 Legend Double Dagger 8.2 2.4 67 34 15 16.1 96.91     LegendNANA
10:00 Legend Double Dagger 9.4 1.2 56 31 18 16.1 96.92     LegendNANA
11:00 Legend Double Dagger 10.2 1.0 53 LegendMM 5 16.1 96.96     LegendNANA
12:00 Legend Double Dagger 11.0 -0.5 45 30 18 16.1 96.98     LegendNANA
13:00 Legend Double Dagger 11.8 -2.1 38 31 22 16.1 96.99     LegendNANA
14:00 Legend Double Dagger 11.9 -2.1 38 30 22 16.1 96.99     LegendNANA
15:00 Legend Double Dagger 13.3 1.0 43 28 13 16.1 96.98     LegendNANA
16:00 Legend Double Dagger 12.3 1.4 47 28 15 16.1 96.98     LegendNANA
17:00 Legend Double Dagger 12.0 0.6 45 32 11 16.1 97.05     LegendNANA
18:00 Legend Double Dagger 10.9 0.2 47 LegendMM 4 16.1 97.11     LegendNANA
19:00 Legend Double Dagger 9.3 1.1 56 1 18 16.1 97.15     LegendNANA
20:00 Legend Double Dagger 8.4 1.1 60 1 21 16.1 97.23     LegendNANA
21:00 Legend Double Dagger 7.8 0.8 61 1 18 16.1 97.28     LegendNANA
22:00 Legend Double Dagger 7.6 0.3 60 34 18 16.1 97.32     LegendNANA
23:00 Legend Double Dagger 4.9 0.5 73 32 13 16.1 97.34     LegendNANA

Notes on Data Quality.

Legend

  • E = Estimated
  • M = Missing
  • NA = Not Available
  • ‡ = Partner data that is not subject to review by the National Climate Archives
Date modified: